Flag for Sudan Weather past 2 weeks in Khartoum, Sudan

Now
93 °F

Clear.


Feels Like: 91 °F
Forecast: 82 / 111 °F
Wind: 8 mph from Southeast

Location: Khartoum Airport

Current Time: May 26, 2015 at 5:36:30 AM

Latest Report: May 26, 2015 at 3:00 AM


Visibility: 10 mi

Pressure: 29.77 "Hg

Humidity: 28%

Dew point: 55 °F

Location of KhartoumLocation

Historic Weather in Khartoum — Graph

°F

Khartoum temperature yesterday

Maximum temperature yesterday: 109 °F (at 4:00 PM)
Minimum temperature yesterday: 86 °F (at 6:00 AM)
Average temperature yesterday: 99 °F

Past Weeks' High & Low Weather Summary

 TemperatureHumidityPressure
High113 °F (May 18, 5:00 PM)46% (May 25, 7:00 AM)29.95 "Hg (May 25, 7:00 AM)
Low82 °F (May 16, 8:00 AM)3% (May 12, 3:00 PM)29.68 "Hg (May 17, 4:00 PM)
Average98 °F10%29.80 "Hg
* Reported May 11 7:00 AM — May 26 3:00 AM, Khartoum, Weather by CustomWeather, © 2015

Note: Actual official high and low records may vary slightly from our data, if they occured in-between our weather recording intervals... More about our weather records

Advertising

Khartoum weather history for previous 24 hours

 ConditionsComfort  
Time TempWeatherWind HumidityBarometerVisibility
3:00 AM
Tue, May 26
93 °FClear.8 mph28%29.77 "Hg10 mi
2:30 AMN/AClear.14 mphN/A29.77 "Hg10 mi
2:00 AM95 °FClear.22 mph25%29.74 "Hg10 mi
1:30 AMN/AClear.7 mphN/A29.74 "Hg10 mi
1:00 AM100 °FClear.13 mph16%29.77 "Hg10 mi
12:00 AM100 °FClear.12 mph14%29.77 "Hg10 mi
11:30 PM
Mon, May 25
N/AClear.12 mphN/A29.77 "Hg10 mi
11:00 PM102 °FClear.6 mph12%29.77 "Hg10 mi
10:30 PMN/AClear.6 mphN/A29.77 "Hg10 mi
10:00 PM102 °FClear.3 mph12%29.74 "Hg10 mi
9:30 PMN/AClear.3 mphN/A29.74 "Hg10 mi
9:00 PM104 °FClear.9 mph11%29.74 "Hg10 mi
8:00 PM104 °FClear.6 mph11%29.71 "Hg10 mi
7:30 PMN/AClear.6 mphN/A29.71 "Hg10 mi
7:00 PMN/ASunny.6 mphN/A29.71 "Hg10 mi
6:30 PMN/ASunny.5 mphN/A29.71 "Hg10 mi
6:00 PM108 °FSunny.7 mph9%29.71 "Hg10 mi
5:30 PMN/ASunny.7 mphN/A29.71 "Hg10 mi
5:00 PM109 °FSunny.9 mph9%29.71 "Hg10 mi
4:30 PMN/ASunny.9 mphN/A29.71 "Hg10 mi
4:00 PM109 °FSunny.5 mph12%29.71 "Hg10 mi
3:30 PMN/ASunny.5 mphN/A29.74 "Hg10 mi
3:00 PM108 °FSunny.12 mph10%29.74 "Hg10 mi
2:30 PMN/ASunny.12 mphN/A29.74 "Hg10 mi
2:00 PM106 °FSunny.12 mph9%29.77 "Hg10 mi
1:30 PMN/ASunny.7 mphN/A29.77 "Hg10 mi
1:00 PM104 °FSunny.5 mph14%29.80 "Hg10 mi
12:30 PMN/ASunny.10 mphN/A29.80 "Hg10 mi
12:00 PM100 °FSunny.8 mph18%29.83 "Hg10 mi
11:30 AMN/ASunny.6 mphN/A29.83 "Hg10 mi
11:00 AM99 °FSunny.5 mph21%29.83 "Hg10 mi
10:30 AMN/ASunny.3 mphN/A29.83 "Hg10 mi
10:00 AM95 °FExtremely hot.No wind25%29.83 "Hg4 mi
9:30 AMN/ANo windN/A29.83 "Hg4 mi
9:00 AM91 °FSunny.No wind34%29.83 "Hg10 mi
8:30 AMN/ASunny.6 mphN/A29.83 "Hg10 mi
8:00 AM88 °FSunny.7 mph38%29.83 "Hg10 mi
7:30 AMN/A8 mphN/A29.83 "Hg5 mi
7:00 AM86 °FSunny.9 mph46%29.80 "Hg10 mi
6:30 AMN/ASunny.8 mphN/A29.80 "Hg10 mi
6:00 AM86 °FClear.8 mph40%29.80 "Hg10 mi
5:30 AMN/AClear.2 mphN/A29.77 "Hg10 mi
5:00 AM91 °FClear.5 mph14%29.77 "Hg10 mi
Weather by CustomWeather, © 2015

See weather overviewHow to use our weather pages